Danville, IN

4:12 AM EDT on May 26, 2017 (GMT -0400)
Vermilion County

Weather History for KDNV - February, 2014

Change the Weather History Date:

Wednesday, February 5, 2014

  Actual Average (KLAF) Record (KLAF)
Temperature  
Mean Temperature 17 °F -  
Max Temperature 26 °F 32 °F 60 °F (2008)
Min Temperature 7 °F 15 °F -16 °F (1979)
Degree Days  
Heating Degree Days 48    
Moisture  
Dew Point 16 °F    
Average Humidity 86    
Maximum Humidity 93    
Minimum Humidity 77    
Precipitation  
Precipitation 0.01 in - - ()
Sea Level Pressure  
Sea Level Pressure 30.14 in    
Wind  
Wind Speed 16 mph (NNW)    
Max Wind Speed 22 mph    
Max Gust Speed 30 mph    
Visibility 6 miles    
Events Snow    
Averages and records for this station are not official NWS values.
T = Trace of Precipitation, MM = Missing Value Source: NWS Daily Summary

Daily Weather History Graph

Daily Weather History Graph

Search for Another Location

Airport or City:

Trip Planner

Search our weather history database for the weather conditions in past years. The results will help you decide how hot, cold, wet, or windy it might be!

Date:

Astronomy

Feb. 05, 2014 Rise Set
Actual Time 6:55 AM CST 5:14 PM CST
Civil Twilight 6:26 AM CST 5:42 PM CST
Nautical Twilight 5:54 AM CST 6:14 PM CST
Astronomical Twilight 5:22 AM CST 6:46 PM CST
Moon 10:09 AM CST (2/5) No Moon Set
Length of Visible Light 11h 15m
Length of Day
10h 18m
Waxing Crescent, 39% of the Moon is Illuminated
Feb 5
Waxing Crescent
Feb 6
First Quarter
Feb 14
Full
Feb 22
Last Quarter
Mar 1
New

Hourly Weather History & Observations

Time (CST) Temp. Windchill Dew Point Humidity Pressure Visibility Wind Dir Wind Speed Gust Speed Precip Events Conditions
12:15 AM 19.4 °F 5.0 °F 17.4 °F 92% 29.88 in 1.2 mi NNE 16.1 mph - N/A Snow Light Snow
12:35 AM 19.4 °F 4.1 °F 17.6 °F 93% 29.88 in 1.0 mi NNE 18.4 mph - N/A Snow Snow
12:55 AM 19.4 °F 4.5 °F 17.6 °F 93% 29.87 in 0.5 mi North 17.3 mph - N/A Snow Heavy Snow
1:15 AM 19.6 °F 3.9 °F 17.6 °F 92% 29.87 in 0.5 mi North 19.6 mph 24.2 mph N/A Snow Snow
1:35 AM 19.4 °F 4.5 °F 17.6 °F 93% 29.86 in 0.5 mi North 17.3 mph 23.0 mph N/A Snow Snow
1:55 AM 19.8 °F 4.1 °F 17.6 °F 91% 29.86 in 1.0 mi North 19.6 mph 25.3 mph 0.01 in Snow Snow
2:15 AM 19.8 °F 4.1 °F 17.6 °F 91% 29.86 in 1.2 mi North 19.6 mph 25.3 mph N/A Snow Light Snow
2:35 AM 19.8 °F 3.7 °F 17.6 °F 91% 29.85 in 1.2 mi North 20.7 mph 26.5 mph N/A Snow Light Snow
2:55 AM 19.8 °F 3.3 °F 17.6 °F 91% 29.84 in 0.8 mi North 21.9 mph 29.9 mph N/A Snow Snow
3:15 AM 19.9 °F 3.9 °F 17.8 °F 91% 29.85 in 0.8 mi North 20.7 mph - N/A Snow Snow
3:35 AM 19.9 °F 5.2 °F 18.0 °F 92% 29.86 in 0.8 mi North 17.3 mph 25.3 mph N/A Snow Snow
3:55 AM 19.9 °F 4.8 °F 17.6 °F 91% 29.87 in 1.8 mi North 18.4 mph - N/A Snow Light Snow
4:15 AM 19.9 °F 5.7 °F 18.1 °F 93% 29.88 in 0.8 mi North 16.1 mph 23.0 mph N/A Snow Snow
4:35 AM 19.9 °F 4.8 °F 18.1 °F 93% 29.88 in 1.0 mi North 18.4 mph - N/A Snow Snow
4:55 AM 20.1 °F 5.0 °F 18.0 °F 91% 29.88 in - North 18.4 mph 24.2 mph N/A   Overcast
5:15 AM 19.9 °F 4.8 °F 17.6 °F 91% 29.88 in 5.0 mi North 18.4 mph - N/A Snow Light Snow
5:35 AM 20.1 °F 5.4 °F 17.6 °F 90% 29.90 in 7.0 mi North 17.3 mph - N/A Snow Light Snow
5:55 AM 20.1 °F 6.4 °F 17.6 °F 90% 29.91 in 7.0 mi North 15.0 mph - N/A Snow Light Snow
6:15 AM 19.9 °F 5.7 °F 17.4 °F 90% 29.91 in 10.0 mi North 16.1 mph - N/A   Overcast
6:35 AM 20.1 °F 5.4 °F 17.6 °F 90% 29.93 in 7.0 mi North 17.3 mph - N/A   Overcast
6:55 AM 20.7 °F 6.6 °F 18.1 °F 90% 29.94 in 7.0 mi North 16.1 mph - N/A   Overcast
7:15 AM 21.0 °F 7.1 °F 18.3 °F 89% 29.95 in 7.0 mi North 16.1 mph - N/A   Overcast
7:35 AM 21.2 °F 7.3 °F 18.5 °F 89% 29.98 in 7.0 mi North 16.1 mph - N/A   Overcast
7:55 AM 21.6 °F 7.8 °F 18.7 °F 89% 30.00 in 7.0 mi North 16.1 mph - N/A   Overcast
8:15 AM 21.7 °F 7.5 °F 18.9 °F 89% 30.02 in 7.0 mi North 17.3 mph 20.7 mph N/A   Overcast
8:35 AM 21.9 °F 7.8 °F 18.9 °F 88% 30.03 in 5.0 mi North 17.3 mph - N/A Snow Light Snow
8:55 AM 22.1 °F 8.5 °F 19.2 °F 89% 30.05 in 3.0 mi North 16.1 mph 21.9 mph N/A Snow Light Snow
9:15 AM 22.1 °F 8.5 °F 19.2 °F 89% 30.06 in 2.0 mi North 16.1 mph - N/A Snow Light Snow
9:35 AM 22.6 °F 9.6 °F 19.2 °F 87% 30.08 in 2.5 mi North 15.0 mph - N/A Snow Light Snow
9:55 AM 23.0 °F 9.2 °F 19.8 °F 87% 30.10 in 2.0 mi North 17.3 mph - N/A Snow Light Snow
10:35 AM 23.9 °F 10.3 °F 19.9 °F 85% 30.12 in 7.0 mi North 17.3 mph - N/A Snow Light Snow
10:55 AM 24.3 °F 11.2 °F 19.9 °F 84% 30.13 in 7.0 mi North 16.1 mph - N/A Snow Light Snow
11:15 AM 24.8 °F 12.9 °F 20.3 °F 83% 30.14 in 7.0 mi North 13.8 mph - N/A Snow Light Snow
11:35 AM 25.7 °F 13.5 °F 21.0 °F 82% 30.14 in 7.0 mi North 15.0 mph - N/A Snow Light Snow
11:55 AM 26.1 °F 13.6 °F 21.4 °F 82% 30.15 in 4.0 mi NNW 16.1 mph 19.6 mph N/A Snow Light Snow
12:15 PM 26.4 °F 15.0 °F 21.6 °F 82% 30.15 in 5.0 mi North 13.8 mph - N/A Snow Light Snow
12:35 PM 26.6 °F 14.3 °F 21.0 °F 79% 30.16 in 7.0 mi North 16.1 mph - N/A Snow Light Snow
12:55 PM 26.6 °F 14.3 °F 21.6 °F 81% 30.16 in 7.0 mi NNW 16.1 mph - N/A Snow Light Snow
1:15 PM 26.2 °F 14.2 °F 21.9 °F 84% 30.17 in 7.0 mi NNW 15.0 mph - N/A Snow Light Snow
1:35 PM 26.2 °F 13.0 °F 21.4 °F 82% 30.18 in 5.0 mi North 18.4 mph 23.0 mph N/A Snow Light Snow
1:55 PM 25.5 °F 12.9 °F 20.8 °F 82% 30.19 in 5.0 mi NNW 16.1 mph 21.9 mph N/A Snow Light Snow
2:15 PM 25.7 °F 12.3 °F 20.1 °F 79% 30.20 in 7.0 mi NNW 18.4 mph - N/A Snow Light Snow
2:35 PM 25.2 °F 12.9 °F 20.1 °F 81% 30.22 in 7.0 mi NW 15.0 mph - N/A Snow Light Snow
2:55 PM 22.6 °F 9.6 °F 18.5 °F 84% 30.24 in 7.0 mi NW 15.0 mph 21.9 mph N/A Snow Light Snow
3:15 PM 22.3 °F 8.7 °F 18.5 °F 85% 30.24 in 10.0 mi NW 16.1 mph 21.9 mph N/A Snow Light Snow
3:35 PM 21.9 °F 8.7 °F 18.1 °F 85% 30.26 in 10.0 mi NW 15.0 mph 23.0 mph N/A   Overcast
3:55 PM 21.6 °F 8.8 °F 18.0 °F 86% 30.27 in 10.0 mi NW 13.8 mph - N/A Snow Light Snow
4:15 PM 20.8 °F 7.9 °F 17.2 °F 86% 30.28 in 10.0 mi NW 13.8 mph - N/A   Overcast
4:35 PM 19.8 °F 5.4 °F 16.3 °F 87% 30.30 in 10.0 mi NW 16.1 mph - N/A   Mostly Cloudy
4:55 PM 19.9 °F 6.2 °F 16.3 °F 86% 30.31 in 5.0 mi NW 15.0 mph - N/A Snow Light Snow
5:15 PM 19.9 °F 7.3 °F 16.3 °F 86% 30.31 in 10.0 mi NW 12.7 mph 18.4 mph N/A Snow Light Snow
5:35 PM 19.2 °F 7.0 °F 15.4 °F 85% 30.32 in 10.0 mi NW 11.5 mph - N/A   Mostly Cloudy
5:55 PM 19.0 °F 5.6 °F 14.9 °F 84% 30.33 in 10.0 mi NNW 13.8 mph 17.3 mph N/A   Overcast
6:15 PM 19.4 °F 6.0 °F 14.9 °F 83% 30.34 in 10.0 mi NW 13.8 mph - N/A   Overcast
6:35 PM 19.4 °F 7.9 °F 14.9 °F 83% 30.35 in 10.0 mi NNW 10.4 mph - N/A Snow Light Snow
6:55 PM 19.2 °F 7.7 °F 14.2 °F 81% 30.36 in 10.0 mi NNW 10.4 mph - N/A Snow Light Snow
7:15 PM 18.9 °F 7.2 °F 13.6 °F 80% 30.37 in 10.0 mi WNW 10.4 mph - N/A   Overcast
7:35 PM 18.1 °F 6.3 °F 13.1 °F 81% 30.38 in 10.0 mi NW 10.4 mph - N/A   Overcast
7:55 PM 16.9 °F 4.1 °F 12.0 °F 81% 30.38 in 10.0 mi NW 11.5 mph - N/A   Overcast
8:15 PM 16.7 °F 5.3 °F 11.7 °F 81% 30.39 in 10.0 mi NW 9.2 mph - N/A   Overcast
8:35 PM 16.3 °F 4.1 °F 10.9 °F 79% 30.40 in 10.0 mi NW 10.4 mph - N/A   Overcast
8:55 PM 15.8 °F 2.1 °F 10.0 °F 78% 30.41 in 10.0 mi NNW 12.7 mph 16.1 mph N/A   Overcast
9:15 PM 14.9 °F 0.9 °F 9.3 °F 79% 30.41 in 10.0 mi NNW 12.7 mph - N/A   Overcast
9:35 PM 14.5 °F 1.1 °F 8.6 °F 77% 30.41 in 10.0 mi NW 11.5 mph - N/A   Overcast
9:55 PM 14.0 °F 0.5 °F 8.6 °F 79% 30.41 in 10.0 mi NW 11.5 mph 16.1 mph N/A   Overcast
10:15 PM 12.9 °F -0.9 °F 7.9 °F 80% 30.41 in 10.0 mi NW 11.5 mph - N/A   Overcast
10:35 PM 11.5 °F -3.4 °F 7.3 °F 83% 30.42 in 10.0 mi NW 12.7 mph - N/A   Overcast
10:55 PM 10.6 °F -4.5 °F 6.6 °F 84% 30.42 in 10.0 mi NW 12.7 mph - N/A   Scattered Clouds
11:15 PM 9.1 °F -4.0 °F 5.7 °F 86% 30.43 in 10.0 mi WNW 9.2 mph - N/A   Mostly Cloudy
11:35 PM 8.4 °F -1.6 °F 4.8 °F 85% 30.43 in 10.0 mi West 5.8 mph - N/A   Overcast
11:55 PM 7.7 °F 1.0 °F 4.3 °F 86% 30.43 in 10.0 mi West 3.5 mph - N/A   Overcast